�������l�o���
Date,Time,MP-1(��Sv/h),MP-2(��Sv/h),MP-3(��Sv/h),MP-4(��Sv/h),MP-5(��Sv/h),MP-6(��Sv/h),MP-7(��Sv/h),MP-8(��Sv/h),����,����(m/s),���J
2017/04/03,00:00,1.004,1.635,1.101,1.934,1.340,0.538,0.990,0.922,���k��,2.9,��
2017/04/03,00:10,1.004,1.635,1.099,1.936,1.337,0.539,0.991,0.922,�k��,4.1,��
2017/04/03,00:20,1.002,1.635,1.099,1.935,1.336,0.540,0.990,0.923,���k��,5.0,��
2017/04/03,00:30,1.004,1.635,1.100,1.935,1.338,0.537,0.990,0.924,���k��,4.0,��
2017/04/03,00:40,1.005,1.631,1.099,1.935,1.338,0.535,0.989,0.921,���k��,3.8,��
2017/04/03,00:50,1.004,1.632,1.101,1.933,1.339,0.540,0.990,0.922,���k��,3.8,��
2017/04/03,01:00,1.002,1.635,1.099,1.933,1.340,0.538,0.990,0.921,���k��,3.1,��
2017/04/03,01:10,1.005,1.634,1.102,1.934,1.342,0.539,0.990,0.919,���k��,3.3,��
2017/04/03,01:20,1.004,1.633,1.100,1.939,1.337,0.538,0.988,0.921,���k��,3.4,��
2017/04/03,01:30,1.005,1.633,1.097,1.938,1.338,0.538,0.991,0.923,���k��,3.9,��
2017/04/03,01:40,1.003,1.637,1.101,1.937,1.338,0.538,0.990,0.920,�k��,4.3,��
2017/04/03,01:50,1.004,1.632,1.099,1.933,1.335,0.537,0.989,0.921,���k��,4.1,��
2017/04/03,02:00,1.005,1.632,1.097,1.934,1.337,0.538,0.990,0.922,�k��,4.0,��
2017/04/03,02:10,1.003,1.632,1.101,1.938,1.340,0.537,0.991,0.920,�k��,3.7,��
2017/04/03,02:20,1.001,1.635,1.099,1.933,1.336,0.538,0.988,0.921,�k��,3.6,��
2017/04/03,02:30,1.002,1.631,1.098,1.936,1.335,0.538,0.990,0.920,�k��,3.6,��
2017/04/03,02:40,1.002,1.635,1.101,1.935,1.338,0.538,0.992,0.922,�k��,4.2,��
2017/04/03,02:50,1.003,1.633,1.099,1.934,1.335,0.538,0.993,0.921,�k��,4.4,��
2017/04/03,03:00,1.005,1.632,1.100,1.937,1.337,0.538,0.990,0.921,�k��,4.3,��
2017/04/03,03:10,1.003,1.635,1.100,1.935,1.337,0.538,0.990,0.921,�k��,5.3,��
2017/04/03,03:20,1.004,1.635,1.099,1.935,1.338,0.538,0.990,0.922,�k��,4.9,��
2017/04/03,03:30,1.003,1.633,1.101,1.935,1.339,0.537,0.991,0.921,�k�k��,5.1,��
2017/04/03,03:40,1.002,1.635,1.103,1.933,1.336,0.537,0.989,0.920,�k��,4.8,��
2017/04/03,03:50,1.004,1.634,1.099,1.936,1.335,0.538,0.989,0.922,�k��,5.2,��
2017/04/03,04:00,1.003,1.634,1.102,1.938,1.336,0.537,0.990,0.920,�k��,4.3,��
2017/04/03,04:10,1.005,1.635,1.098,1.937,1.338,0.538,0.990,0.921,���k��,2.3,��
2017/04/03,04:20,1.004,1.634,1.101,1.937,1.337,0.537,0.989,0.922,���쐼,2.2,��
2017/04/03,04:30,1.001,1.632,1.098,1.936,1.336,0.538,0.990,0.920,��,2.6,��
2017/04/03,04:40,1.004,1.635,1.098,1.934,1.337,0.538,0.991,0.920,��,1.4,��
2017/04/03,04:50,1.002,1.633,1.099,1.935,1.338,0.537,0.990,0.922,�쐼,1.2,��
2017/04/03,05:00,1.000,1.633,1.101,1.935,1.336,0.538,0.990,0.921,��쐼,1.2,��
2017/04/03,05:10,1.003,1.632,1.100,1.934,1.339,0.539,0.989,0.921,���쐼,1.7,��
2017/04/03,05:20,1.002,1.632,1.101,1.934,1.336,0.536,0.988,0.920,���쐼,2.3,��
2017/04/03,05:30,1.001,1.635,1.098,1.933,1.336,0.537,0.991,0.920,���쐼,2.3,��
2017/04/03,05:40,1.002,1.633,1.099,1.935,1.335,0.538,0.990,0.920,�쐼,0.9,��
2017/04/03,05:50,1.001,1.630,1.099,1.935,1.335,0.538,0.989,0.920,-,CALM,��
2017/04/03,06:00,1.004,1.633,1.099,1.934,1.337,0.537,0.988,0.922,�k��,1.2,��
2017/04/03,06:10,1.001,1.632,1.100,1.933,1.337,0.536,0.991,0.922,��,1.7,��
2017/04/03,06:20,1.001,1.634,1.101,1.934,1.338,0.539,0.990,0.922,�쐼,3.1,��
2017/04/03,06:30,1.002,1.634,1.098,1.934,1.335,0.539,0.991,0.921,�쐼,2.3,��
2017/04/03,06:40,1.004,1.636,1.100,1.935,1.337,0.538,0.990,0.923,��,1.7,��
2017/04/03,06:50,1.003,1.632,1.098,1.936,1.334,0.539,0.992,0.921,��쐼,2.3,��
2017/04/03,07:00,1.004,1.636,1.102,1.937,1.335,0.539,0.991,0.921,��,2.0,��
2017/04/03,07:10,1.004,1.634,1.100,1.938,1.336,0.539,0.990,0.922,��쓌,3.3,��
2017/04/03,07:20,1.005,1.634,1.100,1.937,1.338,0.539,0.990,0.922,�쓌,1.4,��
2017/04/03,07:30,1.004,1.636,1.101,1.936,1.338,0.540,0.995,0.924,��쓌,0.9,��
2017/04/03,07:40,1.006,1.640,1.103,1.938,1.340,0.540,0.994,0.923,��쐼,1.7,��
2017/04/03,07:50,1.007,1.640,1.102,1.937,1.338,0.539,0.993,0.923,�쓌,1.2,��
2017/04/03,08:00,1.007,1.641,1.104,1.941,1.339,0.538,0.992,0.923,�쓌,1.7,��
2017/04/03,08:10,1.009,1.638,1.103,1.942,1.340,0.538,0.995,0.923,���쓌,2.3,��
2017/04/03,08:20,1.005,1.637,1.098,1.938,1.340,0.539,0.995,0.922,�쓌,2.0,��
2017/04/03,08:30,1.007,1.635,1.097,1.939,1.343,0.538,0.994,0.923,�쓌,1.9,��
2017/04/03,08:40,1.009,1.636,1.100,1.941,1.343,0.540,0.994,0.923,�쓌,2.2,��
2017/04/03,08:50,1.010,1.635,1.102,1.944,1.344,0.539,0.991,0.925,��쓌,2.8,��
2017/04/03,09:00,1.007,1.635,1.101,1.940,1.341,0.541,0.992,0.923,��쓌,3.0,��
2017/04/03,09:10,1.010,1.636,1.101,1.941,1.344,0.539,0.990,0.924,�쓌,3.6,��
2017/04/03,09:20,1.006,1.636,1.097,1.941,1.343,0.538,0.992,0.922,��쓌,2.6,��
2017/04/03,09:30,1.009,1.636,1.099,1.944,1.344,0.538,0.990,0.923,�쓌,3.9,��
2017/04/03,09:40,1.008,1.637,1.099,1.944,1.344,0.540,0.993,0.923,�쓌,4.1,��
2017/04/03,09:50,1.010,1.636,1.101,1.944,1.344,0.540,0.993,0.921,�쓌,3.9,��
2017/04/03,10:00,1.012,1.636,1.104,1.942,1.347,0.538,0.991,0.921,�쓌,4.5,��
2017/04/03,10:10,1.011,1.638,1.101,1.944,1.345,0.539,0.991,0.921,��쓌,5.2,��
2017/04/03,10:20,1.010,1.640,1.102,1.943,1.347,0.540,0.994,0.921,��쓌,5.1,��
2017/04/03,10:30,1.012,1.642,1.104,1.945,1.344,0.539,0.991,0.922,��쓌,5.2,��
2017/04/03,10:40,1.016,1.641,1.105,1.947,1.345,0.537,0.994,0.921,��쓌,5.2,��
2017/04/03,10:50,1.015,1.641,1.101,1.946,1.349,0.538,0.993,0.921,��쓌,3.8,��
2017/04/03,11:00,1.015,1.646,1.106,1.947,1.347,0.537,0.994,0.922,��쓌,3.9,��
2017/04/03,11:10,1.016,1.645,1.108,1.945,1.348,0.539,0.992,0.920,��쓌,5.3,��
2017/04/03,11:20,1.016,1.647,1.107,1.948,1.347,0.538,0.993,0.923,��쓌,4.7,��
2017/04/03,11:30,1.015,1.648,1.105,1.946,1.348,0.540,0.995,0.920,�쓌,5.2,��
2017/04/03,11:40,1.016,1.650,1.107,1.948,1.347,0.539,0.993,0.923,��쓌,5.7,��
2017/04/03,11:50,1.017,1.646,1.105,1.949,1.351,0.539,0.995,0.922,�쓌,6.1,��
2017/04/03,12:00,1.016,1.652,1.106,1.948,1.354,0.540,0.994,0.923,��쓌,6.1,��
2017/04/03,12:10,1.016,1.648,1.107,1.951,1.352,0.541,0.995,0.922,��쓌,5.3,��
2017/04/03,12:20,1.015,1.650,1.107,1.951,1.352,0.541,0.992,0.924,��쓌,5.5,��
2017/04/03,12:30,1.016,1.650,1.107,1.949,1.348,0.543,0.992,0.923,��쓌,6.0,��
2017/04/03,12:40,1.017,1.652,1.106,1.953,1.348,0.542,0.994,0.923,��쓌,6.2,��
2017/04/03,12:50,1.018,1.652,1.105,1.949,1.348,0.544,0.995,0.924,��쓌,7.2,��
2017/04/03,13:00,1.017,1.650,1.106,1.952,1.351,0.544,0.994,0.922,��쓌,6.6,��
2017/04/03,13:10,1.017,1.653,1.105,1.950,1.354,0.544,0.995,0.923,��쓌,6.3,��
2017/04/03,13:20,1.018,1.652,1.108,1.949,1.353,0.542,0.996,0.922,��쓌,6.1,��
2017/04/03,13:30,1.017,1.652,1.110,1.950,1.353,0.544,0.995,0.923,��쓌,6.1,��
2017/04/03,13:40,1.019,1.653,1.113,1.952,1.355,0.544,0.993,0.923,��쓌,6.5,��
2017/04/03,13:50,1.017,1.654,1.112,1.952,1.357,0.543,0.995,0.923,��쓌,6.6,��
2017/04/03,14:00,1.017,1.652,1.116,1.952,1.353,0.545,0.995,0.924,��쓌,6.7,��
2017/04/03,14:10,1.019,1.658,1.112,1.951,1.353,0.544,0.994,0.922,��쓌,7.1,��
2017/04/03,14:20,1.018,1.656,1.113,1.956,1.353,0.547,0.993,0.925,��쓌,7.8,��
2017/04/03,14:30,1.022,1.654,1.114,1.953,1.355,0.545,0.995,0.923,��쓌,6.9,��
2017/04/03,14:40,1.020,1.658,1.115,1.955,1.353,0.546,0.996,0.922,��쓌,7.6,��
2017/04/03,14:50,1.019,1.659,1.117,1.955,1.355,0.548,0.994,0.922,��쓌,6.7,��
2017/04/03,15:00,1.019,1.659,1.115,1.954,1.356,0.546,0.997,0.923,��쓌,6.1,��
2017/04/03,15:10,1.019,1.656,1.117,1.954,1.357,0.546,0.994,0.922,��쓌,6.8,��
2017/04/03,15:20,1.021,1.660,1.117,1.955,1.353,0.547,0.996,0.923,��쓌,5.4,��
2017/04/03,15:30,1.018,1.660,1.116,1.954,1.354,0.544,0.996,0.922,��쓌,5.5,��
2017/04/03,15:40,1.022,1.665,1.117,1.953,1.354,0.544,0.995,0.923,��쓌,6.2,��
2017/04/03,15:50,1.020,1.663,1.117,1.955,1.354,0.546,0.995,0.924,��쓌,5.9,��
2017/04/03,16:00,1.021,1.662,1.115,1.952,1.355,0.546,0.994,0.924,��쓌,4.8,��
2017/04/03,16:10,1.021,1.661,1.117,1.955,1.355,0.545,0.995,0.924,��쓌,5.0,��
2017/04/03,16:20,1.021,1.661,1.116,1.955,1.355,0.545,0.995,0.925,��쓌,5.5,��
2017/04/03,16:30,1.022,1.662,1.116,1.953,1.358,0.545,0.993,0.927,��쓌,5.6,��
2017/04/03,16:40,1.024,1.664,1.115,1.954,1.359,0.546,0.996,0.927,��쓌,5.0,��
2017/04/03,16:50,1.021,1.660,1.116,1.956,1.358,0.545,0.995,0.927,��쓌,5.1,��
2017/04/03,17:00,1.021,1.662,1.117,1.956,1.361,0.546,0.995,0.927,��쓌,3.6,��
2017/04/03,17:10,1.022,1.662,1.117,1.955,1.359,0.546,0.995,0.927,��쓌,4.4,��
2017/04/03,17:20,1.024,1.657,1.117,1.956,1.359,0.544,0.993,0.927,��쓌,3.8,��
2017/04/03,17:30,1.022,1.663,1.116,1.956,1.358,0.547,0.995,0.926,��쓌,4.8,��
2017/04/03,17:40,1.021,1.662,1.116,1.953,1.359,0.546,0.995,0.925,��,4.7,��
2017/04/03,17:50,1.022,1.665,1.116,1.951,1.357,0.545,0.996,0.925,��,4.9,��
2017/04/03,18:00,1.022,1.662,1.115,1.956,1.359,0.546,0.996,0.926,��,5.2,��
2017/04/03,18:10,1.020,1.659,1.113,1.956,1.360,0.546,0.997,0.925,��,5.4,��
2017/04/03,18:20,1.023,1.663,1.117,1.956,1.359,0.544,0.997,0.925,��,5.4,��
2017/04/03,18:30,1.021,1.660,1.115,1.954,1.360,0.547,0.995,0.928,��,5.9,�L
2017/04/03,18:40,1.022,1.661,1.117,1.955,1.357,0.545,0.996,0.925,��쐼,6.4,�L
2017/04/03,18:50,1.019,1.661,1.116,1.955,1.358,0.547,0.998,0.925,��쐼,7.2,�L
2017/04/03,19:00,1.021,1.660,1.115,1.951,1.357,0.546,0.994,0.925,��쐼,6.1,�L
2017/04/03,19:10,1.019,1.654,1.114,1.953,1.353,0.546,0.993,0.924,��쐼,5.9,�L
2017/04/03,19:20,1.022,1.654,1.114,1.953,1.354,0.546,0.992,0.926,��쐼,4.6,�L
2017/04/03,19:30,1.019,1.655,1.116,1.949,1.354,0.547,0.993,0.923,��,5.4,�L
2017/04/03,19:40,1.019,1.654,1.115,1.954,1.353,0.546,0.993,0.923,��쓌,6.1,�L
2017/04/03,19:50,1.017,1.653,1.112,1.951,1.351,0.547,0.992,0.923,��쓌,4.9,��
2017/04/03,20:00,1.019,1.653,1.112,1.951,1.350,0.546,0.994,0.924,��쓌,4.1,��
2017/04/03,20:10,1.018,1.653,1.113,1.951,1.352,0.545,0.994,0.923,��쓌,5.4,��
2017/04/03,20:20,1.015,1.652,1.111,1.951,1.351,0.543,0.994,0.923,��,5.1,��
2017/04/03,20:30,1.013,1.653,1.111,1.950,1.345,0.544,0.996,0.923,��,4.5,��
2017/04/03,20:40,1.013,1.649,1.110,1.949,1.350,0.543,0.993,0.923,��,4.0,��
2017/04/03,20:50,1.014,1.647,1.109,1.949,1.348,0.543,0.994,0.921,��,4.3,��
2017/04/03,21:00,1.012,1.647,1.110,1.947,1.350,0.542,0.992,0.920,��,3.9,��
2017/04/03,21:10,1.014,1.650,1.108,1.946,1.349,0.541,0.992,0.920,��,4.4,��
2017/04/03,21:20,1.013,1.646,1.109,1.945,1.347,0.543,0.992,0.922,��쓌,5.7,��
2017/04/03,21:30,1.011,1.643,1.110,1.947,1.347,0.542,0.992,0.923,��,4.1,��
2017/04/03,21:40,1.012,1.649,1.106,1.946,1.350,0.542,0.990,0.920,��,4.0,��
2017/04/03,21:50,1.012,1.648,1.107,1.946,1.350,0.541,0.991,0.922,��,3.4,��
2017/04/03,22:00,1.011,1.646,1.107,1.946,1.347,0.541,0.992,0.921,��쓌,3.1,��
2017/04/03,22:10,1.012,1.644,1.105,1.946,1.346,0.541,0.992,0.922,��,3.0,��
2017/04/03,22:20,1.013,1.646,1.105,1.947,1.347,0.540,0.993,0.922,��쓌,2.5,��
2017/04/03,22:30,1.014,1.646,1.106,1.945,1.348,0.542,0.993,0.923,��쓌,1.7,��
2017/04/03,22:40,1.012,1.645,1.108,1.946,1.346,0.539,0.991,0.920,��,1.5,��
2017/04/03,22:50,1.010,1.646,1.107,1.943,1.346,0.541,0.992,0.921,��쐼,2.0,��
2017/04/03,23:00,1.012,1.643,1.107,1.948,1.348,0.540,0.993,0.921,�쐼,3.2,��
2017/04/03,23:10,1.013,1.645,1.107,1.945,1.348,0.542,0.994,0.923,���쐼,2.3,��
2017/04/03,23:20,1.012,1.647,1.107,1.945,1.347,0.541,0.993,0.923,���쐼,3.0,��
2017/04/03,23:30,1.011,1.646,1.106,1.945,1.342,0.541,0.991,0.923,��,2.3,��
2017/04/03,23:40,1.014,1.646,1.108,1.946,1.348,0.540,0.991,0.924,��,2.6,��
2017/04/03,23:50,1.010,1.645,1.108,1.945,1.346,0.540,0.993,0.925,���쐼,1.2,��
